Time,TemperatureF,DewpointF,PressureIn,WindDirection,WindDirectionDegrees,WindSpeedMPH,WindSpeedGustMPH,Humidity,HourlyPrecipIn,Conditions,Clouds,dailyrainin,SoftwareType,DateUTC
2013-08-27 00:01:00,72.3,67.6,30.04,SSW,207,3.0,6.3,85,0.00,,,0.00,WUHU21623XXSP,2013-08-27 05:01:00,
2013-08-27 00:06:00,72.3,67.6,30.04,SW,214,3.9,8.7,85,0.00,,,0.00,WUHU21623XXSP,2013-08-27 05:06:00,
2013-08-27 00:11:00,72.1,67.4,30.04,SW,214,2.5,6.5,85,0.00,,,0.00,WUHU21623XXSP,2013-08-27 05:11:00,
2013-08-27 00:16:00,72.1,67.4,30.04,SW,216,4.8,7.8,85,0.00,,,0.00,WUHU21623XXSP,2013-08-27 05:16:00,
2013-08-27 00:21:00,72.0,67.2,30.04,SW,216,2.9,8.5,85,0.00,,,0.00,WUHU21623XXSP,2013-08-27 05:21:00,
2013-08-27 00:26:00,72.0,67.2,30.04,SSW,211,2.4,6.7,85,0.00,,,0.00,WUHU21623XXSP,2013-08-27 05:26:00,
2013-08-27 00:31:00,72.0,67.2,30.04,SW,214,2.6,7.6,85,0.00,,,0.00,WUHU21623XXSP,2013-08-27 05:31:00,
2013-08-27 00:36:00,72.0,67.2,30.04,SW,217,3.1,6.3,85,0.00,,,0.00,WUHU21623XXSP,2013-08-27 05:36:00,
2013-08-27 00:41:00,72.0,67.2,30.04,SW,223,4.3,7.8,85,0.00,,,0.00,WUHU21623XXSP,2013-08-27 05:41:00,
2013-08-27 00:46:00,72.0,67.2,30.04,SW,228,2.9,8.3,85,0.00,,,0.00,WUHU21623XXSP,2013-08-27 05:46:00,
2013-08-27 00:51:00,72.0,67.2,30.04,SSW,213,2.5,6.5,85,0.00,,,0.00,WUHU21623XXSP,2013-08-27 05:51:00,
2013-08-27 00:56:00,72.0,67.2,30.04,SW,214,2.3,6.5,85,0.00,,,0.00,WUHU21623XXSP,2013-08-27 05:56:00,
2013-08-27 01:01:00,72.1,67.4,30.04,SW,228,2.3,7.6,85,0.00,,,0.00,WUHU21623XXSP,2013-08-27 06:01:00,
2013-08-27 01:06:00,72.1,67.4,30.03,SW,224,2.4,6.9,85,0.00,,,0.00,WUHU21623XXSP,2013-08-27 06:06:00,
2013-08-27 01:11:00,72.1,67.4,30.03,SW,219,2.9,7.4,85,0.00,,,0.00,WUHU21623XXSP,2013-08-27 06:11:00,
2013-08-27 01:16:00,72.1,67.4,30.03,SW,218,1.4,5.8,85,0.00,,,0.00,WUHU21623XXSP,2013-08-27 06:16:00,
2013-08-27 01:21:00,72.1,67.4,30.03,SW,223,2.1,5.4,85,0.00,,,0.00,WUHU21623XXSP,2013-08-27 06:21:00,
2013-08-27 01:26:00,72.1,67.4,30.03,SW,228,1.9,6.3,85,0.00,,,0.00,WUHU21623XXSP,2013-08-27 06:26:00,
2013-08-27 01:30:00,72.1,67.4,30.02,SW,225,2.0,4.7,85,0.00,,,0.00,WUHU21623XXSP,2013-08-27 06:30:00,
2013-08-27 02:30:00,72.5,67.8,30.01,West,270,1.6,1.6,85,0.00,,,0.00,WUHU21623XXSP,2013-08-27 07:30:00,
2013-08-27 03:30:00,71.8,67.1,30.00,North,0,0.0,0.0,85,0.00,,,0.00,WUHU21623XXSP,2013-08-27 08:30:00,
2013-08-27 04:30:00,71.2,66.8,29.99,South,180,3.8,3.8,86,0.00,,,0.00,WUHU21623XXSP,2013-08-27 09:30:00,
2013-08-27 05:30:00,71.4,67.0,30.00,WSW,248,1.8,1.8,86,0.00,,,0.00,WUHU21623XXSP,2013-08-27 10:30:00,
2013-08-27 06:30:00,71.2,66.8,30.01,North,0,0.0,0.0,86,0.00,,,0.00,WUHU21623XXSP,2013-08-27 11:30:00,
2013-08-27 07:30:00,72.3,67.9,30.02,WSW,248,2.9,2.9,86,0.00,,,0.00,WUHU21623XXSP,2013-08-27 12:30:00,
2013-08-27 08:30:00,74.5,69.7,30.02,WSW,248,2.0,2.0,85,0.00,,,0.00,WUHU21623XXSP,2013-08-27 13:30:00,
2013-08-27 09:30:00,77.5,72.7,30.02,WSW,248,2.9,2.9,85,0.00,,,0.00,WUHU21623XXSP,2013-08-27 14:30:00,
2013-08-27 10:30:00,81.1,74.8,30.01,WSW,248,2.0,2.0,81,0.00,,,0.00,WUHU21623XXSP,2013-08-27 15:30:00,
2013-08-27 11:30:00,83.1,75.3,30.00,WSW,248,5.1,5.1,77,0.00,,,0.00,WUHU21623XXSP,2013-08-27 16:30:00,
2013-08-27 12:30:00,86.5,77.0,29.98,SW,225,5.1,5.1,73,0.00,,,0.00,WUHU21623XXSP,2013-08-27 17:30:00,
2013-08-27 13:30:00,88.9,77.3,29.96,SSW,203,1.8,1.8,68,0.00,,,0.00,WUHU21623XXSP,2013-08-27 18:30:00,
2013-08-27 14:30:00,89.4,77.3,29.94,SW,225,3.4,3.4,67,0.00,,,0.00,WUHU21623XXSP,2013-08-27 19:30:00,
2013-08-27 15:30:00,89.4,76.4,29.93,West,270,5.4,5.4,65,0.00,,,0.00,WUHU21623XXSP,2013-08-27 20:30:00,
2013-08-27 16:30:00,88.7,75.3,29.93,SW,225,5.6,5.6,64,0.00,,,0.00,WUHU21623XXSP,2013-08-27 21:30:00,
2013-08-27 17:30:00,86.7,73.8,29.92,SSW,203,13.9,13.9,65,0.00,,,0.00,WUHU21623XXSP,2013-08-27 22:30:00,
2013-08-27 18:30:00,85.3,73.4,29.91,SSW,203,4.5,4.5,67,0.00,,,0.00,WUHU21623XXSP,2013-08-27 23:30:00,
2013-08-27 19:30:00,82.0,71.1,29.91,SSW,203,7.6,7.6,69,0.00,,,0.00,WUHU21623XXSP,2013-08-28 00:30:00,
2013-08-27 20:30:00,79.0,69.8,29.91,SSW,203,4.9,4.9,73,0.00,,,0.00,WUHU21623XXSP,2013-08-28 01:30:00,
2013-08-27 21:30:00,78.1,68.5,29.93,SW,225,1.8,1.8,72,0.00,,,0.00,WUHU21623XXSP,2013-08-28 02:30:00,
2013-08-27 22:30:00,76.6,67.5,29.93,SSW,203,2.5,2.5,73,0.00,,,0.00,WUHU21623XXSP,2013-08-28 03:30:00,
2013-08-27 23:30:00,75.4,66.7,29.92,WSW,248,4.7,4.7,74,0.00,,,0.00,WUHU21623XXSP,2013-08-28 04:30:00,